User: anonymous
Location: Deer Path Park
(40.5570°N, 74.8450°W)
Time: 08:20:11
(UTC-04:00)
Language:

Iridium 49 - Orbit

View from above orbital plane
View from above orbital plane
View from above satellite
View from above satellite

Ground track
Ground track

The orbit data is extracted from the following two-line orbital elements,

1 25108U 97082E   14209.07545396  .00000283  00000-0  94029-4 0  8515
2 25108 086.3995 336.4578 0002239 111.7244 310.4033 14.34217266869148
Epoch (UTC): 28 July 2014 01:48:39
Eccentricity: 0.0002239
inclination: 86.3995°
perigee height: 776 km
apogee height: 779 km
right ascension of ascending node: 336.4578°
argument of perigee: 111.7244°
revolutions per day: 14.34217266
mean anomaly at epoch: 310.4033°
orbit number at epoch: 86914

The dashed part of the orbit path shows where the satellite is in the earth's shadow,  

DLR